TimeEDT,TemperatureF,Dew PointF,Humidity,Sea Level PressureIn,VisibilityMPH,Wind Direction,Wind SpeedMPH,Gust SpeedMPH,PrecipitationIn,Events,Conditions,WindDirDegrees,DateUTC
12:53 AM,82.9,73.9,74,30.14,10.0,South,5.8,-,N/A,,Mostly Cloudy,190,2013-07-30 04:53:00
1:53 AM,84.0,73.9,72,30.12,10.0,SSE,4.6,-,N/A,,Clear,160,2013-07-30 05:53:00
2:53 AM,82.9,73.9,74,30.12,10.0,ESE,5.8,-,N/A,,Clear,120,2013-07-30 06:53:00
3:53 AM,82.9,73.9,74,30.11,10.0,SE,3.5,-,N/A,,Clear,140,2013-07-30 07:53:00
4:53 AM,82.9,73.0,72,30.11,10.0,ESE,6.9,-,N/A,,Clear,120,2013-07-30 08:53:00
5:53 AM,82.0,73.9,76,30.11,10.0,SE,6.9,-,N/A,,Clear,140,2013-07-30 09:53:00
6:53 AM,82.0,73.9,76,30.13,10.0,ESE,8.1,-,N/A,,Clear,120,2013-07-30 10:53:00
7:53 AM,82.9,75.9,79,30.14,10.0,ESE,6.9,-,N/A,,Clear,110,2013-07-30 11:53:00
8:53 AM,84.0,77.0,79,30.16,10.0,SE,5.8,-,N/A,,Clear,130,2013-07-30 12:53:00
9:53 AM,84.9,78.1,80,30.17,10.0,SE,4.6,-,N/A,,Clear,130,2013-07-30 13:53:00
10:53 AM,86.0,77.0,74,30.17,10.0,East,3.5,-,N/A,,Clear,90,2013-07-30 14:53:00
11:32 AM,87.1,75.9,69,30.17,10.0,ESE,4.6,-,N/A,,Partly Cloudy,110,2013-07-30 15:32:00
11:53 AM,88.0,75.9,67,30.17,10.0,East,4.6,-,N/A,,Clear,100,2013-07-30 15:53:00
12:53 PM,90.0,73.9,59,30.15,10.0,East,4.6,-,N/A,,Clear,90,2013-07-30 16:53:00
1:53 PM,91.0,73.9,57,30.13,10.0,East,3.5,-,N/A,,Clear,90,2013-07-30 17:53:00
2:53 PM,93.0,73.9,54,30.12,10.0,ENE,3.5,-,N/A,,Clear,70,2013-07-30 18:53:00
3:53 PM,93.9,73.0,51,30.09,10.0,Calm,Calm,-,N/A,,Clear,0,2013-07-30 19:53:00
4:53 PM,93.9,72.0,49,30.07,10.0,Calm,Calm,-,N/A,,Clear,0,2013-07-30 20:53:00
5:53 PM,95.0,72.0,47,30.06,10.0,ENE,3.5,-,N/A,,Clear,70,2013-07-30 21:53:00
6:53 PM,88.0,75.0,65,30.08,10.0,SSW,24.2,32.2,N/A,,Mostly Cloudy,200,2013-07-30 22:53:00
7:53 PM,84.9,75.9,74,30.10,7.0,North,8.1,-,0.02,Rain,Light Rain,360,2013-07-30 23:53:00
8:53 PM,82.9,77.0,82,30.11,10.0,North,5.8,-,0.01,,Clear,360,2013-07-31 00:53:00
9:53 PM,84.0,77.0,79,30.12,10.0,WSW,3.5,-,N/A,,Clear,250,2013-07-31 01:53:00
10:53 PM,84.9,77.0,77,30.14,10.0,Calm,Calm,-,N/A,,Clear,0,2013-07-31 02:53:00
11:53 PM,84.9,77.0,77,30.13,10.0,Calm,Calm,-,N/A,,Clear,0,2013-07-31 03:53:00